Simultaneous Nadir Overpasses (SNOs) Predictions

Prediction of SNOs near equator between AQUA and NPP Satellite Orbit:

Table of predicted SNOs near equator for the next 14.0 days since TLE Epoch: 3/17/2017
Index Date (AQUA) Time (AQUA) AQUA Lat,Lon Date (NPP) Time (NPP) NPP Lat,Lon Distance(km) Time Diff (sec)
1 03/18/2017 16:26:14 -6.24, 136.47 03/18/2017 16:16:14 -6.21, 136.22 27.41 600
2 03/18/2017 17:14:30 1.70, -54.94 03/18/2017 17:05:45 1.59, -55.45 57.41 525
3 03/18/2017 18:02:37 2.83, 113.68 03/18/2017 17:55:07 3.01, 112.92 87.27 450
4 03/21/2017 08:42:27 -5.06,-107.41 03/21/2017 08:32:46 -4.97,-107.72 35.38 581
5 03/21/2017 09:30:42 0.47, 61.19 03/21/2017 09:22:17 0.36, 60.61 65.41 505
6 03/21/2017 10:18:50 4.01,-130.20 03/21/2017 10:11:40 4.19,-131.04 95.14 430
7 03/24/2017 00:58:40 -3.90, 8.70 03/24/2017 00:49:19 -3.80, 8.32 43.40 561
8 03/24/2017 01:46:54 -0.76, 177.31 03/24/2017 01:38:49 -0.87, 176.66 73.44 485
9 03/26/2017 16:33:02 29.97, -49.07 03/26/2017 16:23:02 30.24, -49.63 61.69 600
10 03/26/2017 17:14:52 -2.68, 124.83 03/26/2017 17:05:51 -2.57, 124.38 51.45 541
11 03/26/2017 18:03:06 -1.97, -66.56 03/26/2017 17:55:21 -2.10, -67.28 81.46 465
12 03/29/2017 08:42:55 5.96, 72.34 03/29/2017 08:32:59 5.91, 72.08 29.49 596
13 03/29/2017 09:31:03 -1.46,-119.04 03/29/2017 09:22:22 -1.35,-119.56 59.56 521
14 03/29/2017 10:19:17 -3.18, 49.57 03/29/2017 10:11:52 -3.32, 48.77 89.44 445




NCC Satellite Simultaneous Nadir Overpasses (SNOs) Prediction Service
